FW0071 Weather Reports


time (UTC)temp
C
wind
direction
speed
KPH
gust
KPH
rain 1hr
cm
rain 24hr
cm
rain mn
cm
humidity
%
barometer
mb
20260510091512 17 253 0.0 0.0 0.00 0.00 0.00 76 1012.1
20260510090016 16 283 0.0 1.6 0.00 0.00 0.00 77 1012.0
20260510084507 16 209 0.0 3.2 0.00 0.00 0.00 78 1012.1
20260510083006 16 278 0.0 0.0 0.00 0.00 0.00 78 1012.1
20260510081515 16 215 0.0 0.0 0.00 0.00 0.00 78 1012.0
20260510080004 16 177 0.0 3.2 0.00 0.00 0.00 79 1012.0
20260510074502 15 201 0.0 0.0 0.00 0.00 0.00 80 1011.9
20260510073059 15 152 0.0 0.0 0.00 0.00 0.00 81 1011.8
20260510071600 15 110 0.0 0.0 0.00 0.00 0.00 81 1011.5
20260510070058 15 110 0.0 0.0 0.00 0.00 0.00 83 1011.4
20260510064551 14 110 0.0 0.0 0.00 0.00 0.00 86 1011.4
20260510063048 13 110 0.0 0.0 0.00 0.00 0.00 89 1011.3
20260510061550 12 110 0.0 0.0 0.00 0.00 0.00 92 1011.1
20260510060047 12 188 0.0 0.0 0.00 0.00 0.00 93 1011.1
20260510054549 11 188 0.0 0.0 0.00 0.00 0.00 93 1011.1
20260510053044 10 188 0.0 1.6 0.00 0.00 0.00 93 1011.1
20260510051545 10 107 0.0 0.0 0.00 0.00 0.00 93 1011.0
20260510050043 10 107 0.0 0.0 0.00 0.00 0.00 92 1011.0
20260510044545 10 107 0.0 0.0 0.00 0.00 0.00 92 1011.0
20260510043041 10 107 0.0 0.0 0.00 0.00 0.00 92 1011.0
20260510041540 10 107 0.0 0.0 0.00 0.00 0.00 92 1010.9
20260510040038 11 107 0.0 0.0 0.00 0.00 0.00 92 1011.0
20260510034540 11 107 0.0 0.0 0.00 0.00 0.00 92 1011.1
20260510033045 11 107 0.0 0.0 0.00 0.00 0.00 92 1011.1
20260510031544 11 107 0.0 0.0 0.00 0.00 0.00 92 1011.2
20260510030035 11 107 0.0 0.0 0.00 0.00 0.00 92 1011.1
20260510024542 11 107 0.0 0.0 0.00 0.00 0.00 92 1011.2
20260510023033 11 107 0.0 0.0 0.00 0.00 0.00 92 1011.2
20260510021534 11 107 0.0 0.0 0.00 0.00 0.00 92 1011.3
20260510020031 11 107 0.0 0.0 0.00 0.00 0.00 92 1011.2
20260510014533 11 107 0.0 0.0 0.00 0.00 0.00 92 1011.2
20260510013029 11 107 0.0 0.0 0.00 0.00 0.00 92 1011.2
20260510011535 11 107 0.0 0.0 0.00 0.00 0.00 92 1011.1
20260510010025 11 107 0.0 0.0 0.00 0.00 0.00 92 1011.4
20260510004524 11 107 0.0 0.0 0.00 0.00 0.00 91 1011.5
20260510003047 11 107 0.0 0.0 0.00 0.00 0.00 91 1011.5
20260510001526 11 107 0.0 0.0 0.00 0.00 0.00 91 1011.4
20260510000022 12 107 0.0 0.0 0.00 0.00 0.00 91 1011.4
20260509234527 12 107 0.0 0.0 0.00 0.00 0.00 90 1011.6
20260509233022 12 107 0.0 0.0 0.00 0.00 0.00 90 1011.9
20260509231528 12 107 0.0 0.0 0.00 0.00 0.00 90 1011.8
20260509230021 12 107 0.0 0.0 0.00 0.00 0.00 90 1012.1
20260509224515 12 107 0.0 0.0 0.00 0.00 0.00 89 1012.1
20260509223011 12 107 0.0 0.0 0.00 0.00 0.00 89 1012.1
20260509221510 13 107 0.0 0.0 0.00 0.00 0.00 89 1011.7
20260509220007 13 107 0.0 0.0 0.00 0.00 0.00 89 1012.1
20260509214508 13 107 0.0 0.0 0.00 0.00 0.00 89 1012.3
20260509213005 13 107 0.0 0.0 0.00 0.00 0.00 88 1012.3
20260509211504 12 107 0.0 0.0 0.00 0.00 0.00 88 1012.2
20260509210012 12 107 0.0 0.0 0.00 0.00 0.00 85 1012.2
20260509204503 12 107 0.0 0.0 0.00 0.00 0.00 84 1012.1
20260509203002 13 107 0.0 0.0 0.00 0.00 0.00 83 1011.7
20260509201502 13 107 0.0 0.0 0.00 0.00 0.00 82 1011.4
20260509200006 14 107 0.0 0.0 0.00 0.00 0.00 81 1011.2
20260509194600 14 107 0.0 0.0 0.00 0.00 0.00 80 1011.1
20260509193100 15 107 0.0 0.0 0.00 0.00 0.00 81 1010.7
20260509191600 15 107 0.0 0.0 0.00 0.00 0.00 80 1010.3
20260509190059 15 107 0.0 0.0 0.00 0.00 0.00 80 1010.3
20260509184602 15 107 0.0 0.0 0.00 0.00 0.00 80 1010.4
20260509183139 15 148 0.0 0.0 0.00 0.00 0.00 79 1010.2
20260509181615 15 144 0.0 1.6 0.00 0.00 0.00 79 1010.1
20260509180058 15 196 0.0 1.6 0.00 0.00 0.00 79 1009.8
20260509174556 15 123 0.0 0.0 0.00 0.00 0.00 80 1009.5
20260509173103 15 109 0.0 1.6 0.00 0.00 0.00 80 1009.1
20260509171559 15 164 0.0 0.0 0.00 0.00 0.00 79 1009.3
20260509170057 15 184 0.0 3.2 0.00 0.00 0.00 82 1009.6
20260509164600 16 180 0.0 0.0 0.00 0.00 0.00 83 1009.6
20260509163057 15 170 0.0 1.6 0.00 0.00 0.00 84 1009.5
20260509161552 15 218 0.0 0.0 0.00 0.00 0.00 84 1009.4
20260509160056 16 183 0.0 1.6 0.00 0.00 0.00 82 1009.7
20260509154555 16 215 0.0 4.8 0.00 0.00 0.00 78 1009.9
20260509153050 17 199 0.0 3.2 0.00 0.00 0.00 73 1009.9
20260509151551 17 210 0.0 6.4 0.00 0.00 0.00 70 1009.9
20260509150049 18 163 0.0 1.6 0.00 0.00 0.00 68 1009.8
20260509144548 18 178 0.0 0.0 0.00 0.00 0.00 70 1009.4
20260509143048 18 158 0.0 0.0 0.00 0.00 0.00 69 1009.4
20260509141545 17 195 0.0 0.0 0.00 0.00 0.00 70 1009.4
20260509140051 17 171 0.0 0.0 0.00 0.00 0.00 73 1009.3
20260509134541 17 149 0.0 0.0 0.00 0.00 0.00 73 1009.6
20260509133039 17 113 0.0 0.0 0.00 0.00 0.00 73 1009.8
20260509131536 17 102 0.0 0.0 0.00 0.00 0.00 73 1010.2
20260509130035 17 144 0.0 0.0 0.00 0.00 0.00 73 1010.4
20260509124534 17 98 0.0 0.0 0.00 0.00 0.00 74 1010.4
20260509123033 17 158 0.0 1.6 0.00 0.00 0.00 73 1010.5
20260509121537 17 105 0.0 0.0 0.00 0.00 0.00 73 1010.7
20260509120030 17 136 0.0 0.0 0.00 0.00 0.00 73 1010.7
20260509114529 17 123 0.0 1.6 0.00 0.00 0.00 73 1010.9
20260509113029 17 61 0.0 0.0 0.00 0.00 0.00 74 1010.9
20260509111525 17 148 0.0 0.0 0.00 0.00 0.00 73 1011.1
20260509110024 17 142 0.0 0.0 0.00 0.00 0.00 73 1011.4
20260509104534 17 129 0.0 3.2 0.00 0.00 0.00 73 1011.5
20260509103021 17 138 0.0 0.0 0.00 0.00 0.00 74 1011.5
20260509101519 17 123 0.0 0.0 0.00 0.00 0.00 75 1011.6
20260509100018 16 115 0.0 0.0 0.00 0.00 0.00 75 1011.7
20260509094517 16 123 0.0 11.3 0.00 0.00 0.00 75 1011.8
20260509093016 16 112 0.0 0.0 0.00 0.00 0.00 75 1011.5